Wind_Speed
11 7 5 5 7 9 11 13 15 16 17 17 18 19 20 22 22 23 24 25 25 27
10 6 5 5 7 10 12 14 14 15 16 17 19 20 22 23 24 24 26 27 28 28
8 6 5 6 8 10 12 12 14 15 17 18 19 21 23 24 24 26 26 27 28 28
8 6 5 7 9 10 10 12 14 16 18 19 21 22 23 24 26 27 27 26 26 27
7 6 6 8 8 8 10 12 15 17 18 20 20 21 23 25 25 25 25 25 27 29
6 6 7 7 7 9 10 12 15 17 18 19 20 22 22 25 24 24 25 28 31 33
5 6 7 6 7 9 11 13 15 16 17 19 21 22 23 24 26 27 30 31 33 32
7 7 6 5 7 9 11 13 15 16 17 19 21 22 25 24 26 29 31 31 32 34
7 5 4 6 7 9 11 13 15 16 18 19 21 23 23 23 27 29 30 33 36 37
5 4 5 6 8 10 12 13 15 16 19 20 21 23 23 23 26 28 32 34 36 41
3 4 5 7 8 10 11 13 16 17 19 22 22 22 23 25 27 32 33 35 39 41
3 4 5 7 8 10 11 13 15 17 21 23 22 22 24 25 30 33 36 38 39 32
3 5 5 6 7 9 11 13 15 18 20 21 23 24 24 26 29 35 39 40 39 42
4 4 4 5 7 8 10 12 14 17 18 21 25 28 24 24 29 36 39 42 43 44
Wind_Direction
198 210 240 281 302 310 316 320 323 326 327 326 325 324 323 322 320 318 314 311 308 305
200 216 251 284 299 308 315 320 322 323 323 324 324 323 321 319 319 315 314 312 309 307
204 226 257 284 299 310 316 318 320 322 323 324 323 321 319 319 317 314 312 310 308 307
212 234 266 291 305 312 316 319 322 323 324 323 323 321 320 318 316 316 314 313 315 314
219 246 276 293 303 314 322 323 322 323 323 322 321 320 320 317 317 319 319 321 318 315
230 268 284 297 319 320 320 322 321 321 322 321 321 323 322 319 320 321 322 322 321 320
249 273 290 310 318 317 321 322 321 321 321 323 324 324 321 320 325 325 322 320 317 318
281 281 295 311 319 318 323 323 322 322 324 326 325 326 322 322 323 317 314 316 315 317
268 283 303 316 321 324 324 323 324 327 326 328 328 324 321 320 315 310 313 314 318 316
273 291 306 319 326 328 325 326 328 331 331 331 330 327 322 316 312 315 315 316 316 320
271 298 313 327 331 326 328 332 335 337 334 334 340 332 323 320 319 316 315 317 320 320
267 295 323 331 331 331 334 342 340 341 343 340 342 340 330 330 322 320 320 322 326 321
295 323 331 331 337 340 341 345 348 348 346 345 343 345 337 329 325 321 322 327 319 319
300 320 330 344 338 341 346 353 352 345 347 347 350 348 337 331 328 326 325 319 321 321
Height
1500 1501 1502 1503 1503 1503 1502 1502 1501 1499 1497 1496 1494 1492 1490 1488 1486 1484 1482 1480 1478 1475
1496 1497 1498 1499 1499 1499 1498 1497 1495 1494 1493 1491 1489 1487 1485 1483 1481 1479 1476 1474 1472 1469
1493 1494 1494 1495 1495 1494 1493 1492 1491 1490 1488 1486 1484 1482 1480 1478 1475 1473 1471 1467 1464 1461
1489 1489 1490 1490 1490 1490 1489 1488 1486 1485 1484 1482 1479 1477 1475 1473 1469 1467 1464 1461 1458 1454
1485 1486 1486 1486 1485 1485 1484 1483 1482 1481 1479 1477 1475 1472 1469 1466 1463 1459 1457 1454 1451 1448
1481 1482 1483 1482 1480 1480 1480 1479 1478 1476 1475 1473 1471 1468 1463 1459 1456 1453 1451 1449 1445 1441
1478 1479 1479 1478 1477 1477 1476 1475 1474 1472 1471 1469 1466 1462 1457 1453 1450 1446 1443 1441 1439 1435
1475 1475 1475 1475 1474 1474 1472 1471 1470 1469 1467 1464 1460 1457 1452 1448 1445 1442 1438 1435 1432 1428
1472 1472 1471 1471 1471 1470 1468 1468 1467 1464 1462 1459 1455 1453 1447 1446 1442 1439 1434 1430 1425 1422
1469 1469 1468 1467 1466 1465 1465 1465 1463 1460 1457 1453 1450 1447 1443 1441 1437 1433 1428 1423 1417 1411
1464 1467 1467 1464 1462 1462 1461 1460 1458 1456 1453 1450 1446 1442 1439 1436 1432 1427 1422 1417 1410 1403
1461 1462 1462 1460 1460 1460 1458 1455 1454 1452 1450 1446 1443 1439 1434 1432 1427 1422 1416 1411 1403 1397
1459 1458 1458 1458 1456 1456 1454 1453 1450 1449 1446 1443 1439 1434 1431 1428 1423 1416 1410 1402 1396 1391
1456 1457 1456 1454 1454 1454 1453 1450 1448 1446 1443 1439 1434 1430 1426 1423 1419 1411 1403 1396 1387 1382